KE2A-13 Weather Reports


Display with metric or nautical units.
time (UTC)temp
F
wind
direction
speed
MPH
gust
MPH
rain 1hr
in
rain 24hr
in
rain mn
in
humidity
%
barometer
mb
20260905233000 69 0.0 0.0 0.00 0.00 0.00 83 1011.8
20260905231500 70 0.0 0.0 0.00 0.00 0.00 79 1011.7
20260905230000 71 112 0.0 0.0 0.00 0.00 0.00 77 1011.7
20260905224500 72 334 0.0 1.0 0.00 0.00 0.00 74 1011.4
20260905223000 73 0.0 0.0 0.00 0.00 0.00 70 1011.3
20260905221500 74 0.0 0.0 0.00 0.00 0.00 67 1011.1
20260905220000 75 315 0.0 1.0 0.00 0.00 0.00 65 1011.2
20260905214500 76 280 0.0 1.0 0.00 0.00 0.00 61 1011.0
20260905213000 76 14 2.0 4.0 0.00 0.00 0.00 61 1011.0
20260905211500 76 39 1.0 2.0 0.00 0.00 0.00 61 1010.8
20260905210000 77 129 0.0 1.0 0.00 0.00 0.00 59 1010.7
20260905204500 77 48 2.0 4.0 0.00 0.00 0.00 57 1010.7
20260905203000 78 63 2.0 4.0 0.00 0.00 0.00 58 1010.5
20260905201500 78 152 0.0 1.0 0.00 0.00 0.00 57 1010.6
20260905200000 79 4 2.0 3.0 0.00 0.00 0.00 54 1010.6
20260905194500 80 194 1.0 1.0 0.00 0.00 0.00 53 1010.5
20260905193000 81 300 0.0 2.0 0.00 0.00 0.00 50 1010.4
20260905191500 81 6 0.0 2.0 0.00 0.00 0.00 52 1010.5
20260905190000 81 66 2.0 5.0 0.00 0.00 0.00 51 1010.6
20260905184500 80 319 1.0 2.0 0.00 0.00 0.00 53 1010.7
20260905183000 80 24 2.0 4.0 0.00 0.00 0.00 54 1010.8
20260905181500 79 8 0.0 1.0 0.00 0.00 0.00 56 1011.0
20260905180000 79 291 1.0 3.0 0.00 0.00 0.00 51 1011.1
20260905174500 80 67 3.0 5.0 0.00 0.00 0.00 55 1011.1
20260905173000 79 60 2.0 6.0 0.00 0.00 0.00 59 1011.2
20260905171500 79 44 2.0 5.0 0.00 0.00 0.00 56 1011.3
20260905170000 79 337 2.0 4.0 0.00 0.00 0.00 55 1011.3
20260905164500 79 4 1.0 3.0 0.00 0.00 0.00 58 1011.4
20260905163000 78 47 3.0 6.0 0.00 0.00 0.00 60 1011.4
20260905161500 77 18 3.0 4.0 0.00 0.00 0.00 58 1011.4
20260905160000 77 35 1.0 3.0 0.00 0.00 0.00 62 1011.4
20260905154500 78 78 2.0 4.0 0.00 0.00 0.00 61 1011.4
20260905153000 79 278 0.0 2.0 0.00 0.00 0.00 59 1011.4
20260905151500 77 291 1.0 2.0 0.00 0.00 0.00 63 1011.5
20260905150000 78 103 2.0 4.0 0.00 0.00 0.00 60 1011.5
20260905144500 77 124 2.0 4.0 0.00 0.00 0.00 62 1011.5
20260905143000 76 17 0.0 1.0 0.00 0.00 0.00 64 1011.4
20260905141500 76 86 2.0 4.0 0.00 0.00 0.00 66 1011.4
20260905140000 76 251 2.0 3.0 0.00 0.00 0.00 68 1011.3
20260905134500 74 142 1.0 3.0 0.00 0.00 0.00 69 1011.4
20260905133000 74 51 1.0 4.0 0.00 0.00 0.00 71 1011.5
20260905131500 72 8 2.0 3.0 0.00 0.00 0.00 73 1011.6
20260905130000 72 51 1.0 3.0 0.00 0.00 0.00 76 1011.8
20260905124500 71 33 0.0 1.0 0.00 0.00 0.00 77 1011.9
20260905123000 69 38 0.0 1.0 0.00 0.00 0.00 84 1012.0
20260905121500 66 32 1.0 2.0 0.00 0.00 0.00 92 1011.9
20260905120000 64 68 1.0 1.0 0.00 0.00 0.00 97 1012.0
20260905114500 62 78 0.0 1.0 0.00 0.00 0.00 98 1011.8
20260905113000 62 44 0.0 1.0 0.00 0.00 0.00 98 1011.5
20260905111500 61 27 1.0 1.0 0.00 0.00 0.00 98 1011.3
20260905110000 61 16 0.0 1.0 0.00 0.00 0.00 98 1011.1
20260905104500 61 9 0.0 1.0 0.00 0.00 0.00 98 1011.1
20260905103000 61 0.0 0.0 0.00 0.00 0.00 98 1011.0
20260905101500 61 20 0.0 1.0 0.00 0.00 0.00 98 1011.0
20260905100000 62 355 0.0 1.0 0.00 0.00 0.00 98 1010.9
20260905094500 62 24 0.0 1.0 0.00 0.00 0.00 98 1010.9
20260905093000 62 357 0.0 0.0 0.00 0.00 0.00 98 1010.7
20260905091500 62 0.0 0.0 0.00 0.00 0.00 97 1010.7
20260905090000 63 13 0.0 1.0 0.00 0.00 0.00 97 1010.6
20260905084500 63 0.0 0.0 0.00 0.00 0.00 97 1010.6
20260905083000 64 25 0.0 0.0 0.00 0.00 0.00 96 1010.7
20260905081500 64 0.0 0.0 0.00 0.00 0.00 96 1010.7
20260905080000 64 34 0.0 0.0 0.00 0.00 0.00 95 1010.7
20260905074500 65 0.0 0.0 0.00 0.00 0.00 96 1010.7
20260905073000 65 0.0 0.0 0.00 0.00 0.00 96 1010.5
20260905071500 65 0.0 0.0 0.00 0.00 0.00 96 1010.6
20260905070000 66 0.0 0.0 0.00 0.00 0.00 97 1010.7
20260905064500 66 0.0 0.0 0.00 0.00 0.00 97 1010.8
20260905063000 66 11 0.0 1.0 0.00 0.00 0.00 97 1010.9
20260905061500 66 21 0.0 1.0 0.00 0.00 0.00 97 1011.0
20260905060000 66 17 1.0 2.0 0.00 0.00 0.00 97 1011.1
20260905054500 66 2 0.0 0.0 0.00 0.00 0.00 97 1011.2
20260905053000 66 38 0.0 1.0 0.00 0.00 0.00 97 1011.3
20260905051500 66 51 1.0 2.0 0.00 0.00 0.00 97 1011.6
20260905050000 66 0.0 0.0 0.00 0.00 0.00 97 1011.6
20260905044502 66 0.0 0.0 0.00 0.00 0.00 96 1011.7
20260905043000 66 53 0.0 0.0 0.00 0.00 0.00 96 1011.7
20260905041500 66 0.0 0.0 0.00 0.00 0.00 95 1011.6
20260905040000 66 58 2.0 4.0 0.00 0.00 0.24 95 1011.6
20260905034500 66 45 0.0 1.0 0.00 0.00 0.24 95 1011.7
20260905033000 66 12 0.0 1.0 0.00 0.00 0.24 95 1011.8
20260905031500 66 0.0 0.0 0.00 0.00 0.24 95 1011.8
20260905030000 66 17 0.0 1.0 0.00 0.00 0.24 95 1011.9
20260905024500 66 20 0.0 1.0 0.00 0.00 0.24 95 1011.7
20260905023000 66 25 0.0 1.0 0.00 0.00 0.24 95 1011.6
20260905021500 66 25 1.0 2.0 0.00 0.00 0.24 95 1011.6
20260905020000 67 65 0.0 1.0 0.00 0.00 0.24 94 1011.7
20260905014500 67 0.0 0.0 0.00 0.00 0.24 93 1011.6
20260905013000 67 106 0.0 0.0 0.00 0.00 0.24 93 1011.6
20260905011500 68 0.0 0.0 0.00 0.00 0.24 93 1011.5
20260905010000 68 12 0.0 1.0 0.00 0.00 0.24 92 1011.5
20260905004500 69 0.0 0.0 0.00 0.00 0.24 91 1011.6
20260905003000 69 31 1.0 2.0 0.00 0.00 0.24 90 1011.4
20260905001500 70 344 0.0 1.0 0.00 0.00 0.24 88 1011.3
20260905000000 71 90 0.0 0.0 0.00 0.00 0.24 86 1011.3
20260904234500 72 20 0.0 0.0 0.00 0.00 0.24 84 1011.2